Вернуться в каталог

STARLINK-11622

АктивенСвязьVLEO
NORAD 63187·PAYLOAD·🇺🇸 United States

Запущен Mar 13, 2025 с Cape Canaveral Space Force Station

Loading…

Ближайшие Пролёты (ближайшие 24 часа)

TLE

СвежийSource: CelesTrak SupGP

Эпоха: Sep 15, 2026, 03:28 UTC

1 63187C 25048E   26258.14493056 -.00065085  00000+0 -50524-3 0  2581
2 63187  43.0006 258.3074 0001476 258.7375  88.2738 15.70884057    16

Отслеживайте STARLINK-11622 в реальном времени с AllMySat

Download on the App Store